Date String (YYYY-MM-DD hh:mm:ss) UTC,Instrument flags,absolute air pressure of the measurement (hPa),sample flow rate (lpm),inlet stack bypass flow (lpm),air temperature of the measurement (°C),ambient temperature measured by the external sensor (°C),aerosol sample conditioner tube jacket temperature (°C),OPC LED temperature (°C),internal box temperature (°C),relative humidity of the measurement (%),span deviation,mass concentration of particles derived from Lorenz-Mie calculation of OPC scattering (μg/m³),mass concentration of particles derived from Lorenz-Mie calculation of OPC scattering (μg/m³),mass concentration of particles derived from Lorenz-Mie calculation of OPC scattering (μg/m³)
DateTimeUTC,F1_M11,P_M11,Q1_M11,Q2_M11,T1_M11,T2_M11,T3_M11,T4_M11,T5_M11,U1_M11,ZSPAN_M11,X0_M11,X2_M11,X1_M11
2023-09-18 13:00:00,SystemResetWarning,0831.4,4.99,000.00,028.8,027.4,000.0,037.0,030.4,14.6,0000.0,0003.80,0002.53,0002.03
2023-09-18 13:01:00,SystemResetWarning,0831.4,5.00,000.00,028.8,027.4,000.0,037.0,030.4,14.6,0000.0,0004.04,0002.51,0002.01
2023-09-18 13:02:00,SystemResetWarning,0831.4,5.00,000.00,028.8,027.4,000.0,037.0,030.4,14.8,0000.0,0004.22,0002.52,0002.01
2023-09-18 13:03:00,SystemResetWarning,0831.4,5.00,000.00,028.8,027.4,000.0,037.0,030.4,14.6,0000.0,0004.24,0002.51,0002.02
2023-09-18 13:04:00,SystemResetWarning,0831.4,5.01,000.00,028.8,027.5,000.0,037.0,030.5,14.5,0000.0,0004.16,0002.46,0002.01
2023-09-18 13:05:00,SystemResetWarning,0831.4,5.00,000.00,028.8,027.5,000.0,037.1,030.5,14.5,0000.0,0003.99,0002.45,0002.02
2023-09-18 13:06:00,SystemResetWarning,0831.4,5.00,000.00,028.8,027.5,000.0,037.1,030.5,14.6,0000.0,0003.90,0002.46,0002.03
2023-09-18 13:07:00,SystemResetWarning,0831.4,5.01,000.00,028.8,027.5,000.0,037.1,030.5,14.6,0000.0,0004.02,0002.46,0002.03
2023-09-18 13:08:00,SystemResetWarning,0831.4,5.00,000.00,028.9,027.5,000.0,037.1,030.5,14.7,0000.0,0004.56,0002.43,0002.03
2023-09-18 13:09:00,SystemResetWarning,0831.4,5.00,000.00,028.9,027.5,000.0,037.1,030.5,14.7,0000.0,0004.56,0002.44,0002.04
2023-09-18 13:10:00,SystemResetWarning,0831.4,4.99,000.00,028.9,026.7,000.0,037.1,030.3,14.8,0000.0,0004.46,0002.42,0002.04
2023-09-18 13:11:00,SystemResetWarning,0831.3,5.01,000.00,028.7,025.0,000.0,037.0,029.8,14.8,0000.0,0004.31,0002.40,0002.04
2023-09-18 13:12:00,SystemResetWarning,0831.3,5.00,000.00,028.6,024.6,000.0,037.0,029.7,14.7,0000.0,0003.91,0002.37,0002.05
2023-09-18 13:13:00,SystemResetWarning,0831.3,5.01,000.00,028.5,024.7,000.0,036.9,029.6,14.8,0000.0,0003.76,0002.37,0002.05
2023-09-18 13:14:00,SystemResetWarning,0831.3,5.01,000.00,028.4,025.0,000.0,036.9,029.6,15.0,0000.0,0003.79,0002.40,0002.06
2023-09-18 13:15:00,SystemResetWarning,0831.3,4.99,000.00,028.4,025.4,000.0,036.9,029.7,15.0,0000.0,0003.84,0002.41,0002.07
2023-09-18 13:16:00,SystemResetWarning,0831.3,5.00,000.00,028.3,025.7,000.0,036.9,029.7,15.2,0000.0,0003.81,0002.40,0002.07
2023-09-18 13:17:00,SystemResetWarning,0831.4,5.00,000.00,028.3,025.9,000.0,036.9,029.8,15.3,0000.0,0003.81,0002.40,0002.07
2023-09-18 13:18:00,SystemResetWarning,0831.3,5.01,000.00,028.3,026.2,000.0,036.8,029.9,15.2,0000.0,0003.82,0002.40,0002.07
2023-09-18 13:19:00,SystemResetWarning,0831.3,5.01,000.00,028.3,026.4,000.0,036.8,029.9,15.5,0000.0,0003.53,0002.43,0002.07
2023-09-18 13:20:00,SystemResetWarning,0831.4,5.00,000.00,028.4,026.5,000.0,036.8,029.9,15.2,0000.0,0003.63,0002.45,0002.06
2023-09-18 13:21:00,SystemResetWarning,0831.3,4.99,000.00,028.4,026.6,000.0,036.8,029.9,15.2,0000.0,0004.32,0002.45,0002.06
2023-09-18 13:22:00,SystemResetWarning,0831.3,5.00,000.00,028.4,026.8,000.0,036.8,030.0,15.2,0000.0,0004.50,0002.48,0002.07
2023-09-18 13:23:00,SystemResetWarning,0831.3,5.00,000.00,028.4,026.8,000.0,036.8,030.0,15.4,0000.0,0004.65,0002.51,0002.08
2023-09-18 13:24:00,SystemResetWarning,0831.4,5.00,000.00,028.4,026.9,000.0,036.8,030.1,15.5,0000.0,0004.74,0002.55,0002.09
2023-09-18 13:25:00,SystemResetWarning,0831.3,5.00,000.00,028.4,027.0,000.0,036.8,030.1,15.7,0000.0,0004.73,0002.56,0002.09
2023-09-18 13:26:00,SystemResetWarning,0831.3,5.00,000.00,028.5,027.1,000.0,036.8,030.1,15.7,0000.0,0004.76,0002.58,0002.10
2023-09-18 13:27:00,SystemResetWarning,0831.4,5.00,000.00,028.5,027.1,000.0,036.8,030.1,15.7,0000.0,0004.80,0002.60,0002.11
2023-09-18 13:28:00,SystemResetWarning,0831.4,5.00,000.00,028.5,027.1,000.0,036.8,030.1,16.0,0000.0,0004.81,0002.61,0002.13
2023-09-18 13:29:00,SystemResetWarning,0831.3,5.00,000.00,028.5,027.2,000.0,036.8,030.2,16.0,0000.0,0004.96,0002.61,0002.14
2023-09-18 13:30:00,SystemResetWarning,0831.4,5.00,000.00,028.5,027.2,000.0,036.8,030.2,16.0,0000.0,0005.70,0002.61,0002.16
2023-09-18 13:31:00,SystemResetWarning,0831.4,5.00,000.00,028.5,027.2,000.0,036.8,030.2,16.1,0000.0,0006.18,0002.61,0002.18
2023-09-18 13:32:00,SystemResetWarning,0831.4,5.00,000.00,028.6,027.3,000.0,036.8,030.2,16.4,0000.0,0005.78,0002.61,0002.20
2023-09-18 13:33:00,SystemResetWarning,0831.4,5.00,000.00,028.6,027.3,000.0,036.8,030.3,16.4,0000.0,0007.18,0002.59,0002.19
2023-09-18 13:34:00,SystemResetWarning,0831.4,5.00,000.00,028.6,027.3,000.0,036.8,030.3,16.8,0000.0,0007.43,0002.64,0002.21
2023-09-18 13:35:00,SystemResetWarning,0831.4,4.99,000.00,028.6,027.3,000.0,036.9,030.3,16.8,0000.0,0007.41,0002.63,0002.22
2023-09-18 13:36:00,SystemResetWarning,0831.4,5.00,000.00,028.6,027.3,000.0,036.9,030.3,16.3,0000.0,0007.37,0002.61,0002.23
2023-09-18 13:37:00,SystemResetWarning,0831.4,5.00,000.00,028.6,027.3,000.0,036.9,030.3,16.0,0000.0,0007.33,0002.57,0002.21
2023-09-18 13:38:00,SystemResetWarning,0831.3,5.00,000.00,028.7,027.3,000.0,036.9,030.3,16.0,0000.0,0007.37,0002.61,0002.22
2023-09-18 13:39:00,SystemResetWarning,0831.3,5.00,000.00,028.7,027.3,000.0,036.9,030.3,15.9,0000.0,0007.46,0002.65,0002.22
2023-09-18 13:40:00,SystemResetWarning,0831.4,5.00,000.00,028.7,027.3,000.0,036.9,030.3,16.1,0000.0,0007.54,0002.67,0002.22
2023-09-18 13:41:00,SystemResetWarning,0831.4,5.00,000.00,028.7,027.3,000.0,036.9,030.3,16.0,0000.0,0007.06,0002.69,0002.22
2023-09-18 13:42:00,SystemResetWarning,0831.4,5.00,000.00,028.7,027.3,000.0,036.9,030.3,15.8,0000.0,0006.27,0002.68,0002.22
2023-09-18 13:43:00,SystemResetWarning,0831.4,5.00,000.00,028.7,027.3,000.0,037.0,030.3,15.8,0000.0,0006.08,0002.70,0002.22
2023-09-18 13:44:00,SystemResetWarning,0831.4,5.00,000.00,028.7,027.3,000.0,037.0,030.4,15.9,0000.0,0004.54,0002.72,0002.23
2023-09-18 13:45:00,SystemResetWarning,0831.4,5.00,000.00,028.7,027.3,000.0,037.0,030.4,16.0,0000.0,0004.25,0002.72,0002.24
2023-09-18 13:46:00,SystemResetWarning,0831.4,5.00,000.00,028.7,027.3,000.0,037.0,030.3,15.8,0000.0,0004.62,0002.76,0002.26
2023-09-18 13:47:00,SystemResetWarning,0831.4,5.00,000.00,028.8,027.3,000.0,037.0,030.4,15.9,0000.0,0004.96,0002.82,0002.27
2023-09-18 13:48:00,SystemResetWarning,0831.5,5.00,000.00,028.8,027.3,000.0,037.0,030.4,15.9,0000.0,0005.76,0002.87,0002.29
2023-09-18 13:49:00,SystemResetWarning,0831.5,5.00,000.00,028.8,027.3,000.0,037.0,030.4,16.2,0000.0,0006.38,0002.82,0002.28
2023-09-18 13:50:00,SystemResetWarning,0831.4,5.00,000.00,028.8,027.4,000.0,037.0,030.4,16.5,0000.0,0007.44,0002.78,0002.27
2023-09-18 13:51:00,SystemResetWarning,0831.4,5.00,000.00,028.8,027.4,000.0,037.0,030.4,17.0,0000.0,0007.36,0002.76,0002.27
2023-09-18 13:52:00,SystemResetWarning,0831.4,5.00,000.00,028.8,027.4,000.0,037.0,030.4,17.0,0000.0,0007.26,0002.73,0002.26
2023-09-18 13:53:00,SystemResetWarning,0831.5,5.00,000.00,028.8,027.4,000.0,037.1,030.4,16.8,0000.0,0007.24,0002.72,0002.26
2023-09-18 13:54:00,SystemResetWarning,0831.4,4.99,000.00,028.8,026.4,000.0,037.0,030.1,16.7,0000.0,0007.28,0002.73,0002.27
2023-09-18 13:55:00,SystemResetWarning,0831.5,5.00,000.00,028.7,025.1,000.0,037.0,029.8,16.6,0000.0,0007.38,0002.76,0002.27
2023-09-18 13:56:00,SystemResetWarning,0831.5,5.01,000.00,028.6,025.1,000.0,036.9,029.8,17.0,0000.0,0007.33,0002.74,0002.27
2023-09-18 13:57:00,SystemResetWarning,0831.4,5.01,000.00,028.5,025.3,000.0,036.9,029.7,16.9,0000.0,0007.11,0002.70,0002.26
2023-09-18 13:58:00,SystemResetWarning,0831.4,4.99,000.00,028.4,025.5,000.0,036.9,029.7,17.0,0000.0,0006.91,0002.71,0002.25
2023-09-18 13:59:00,SystemResetWarning,0831.5,4.99,000.00,028.4,025.8,000.0,036.9,029.8,16.5,0000.0,0006.36,0002.71,0002.26
